WB9WX Weather Reports


Display with metric or nautical units.
time (UTC)temp
F
wind
direction
speed
MPH
gust
MPH
rain 1hr
in
rain 24hr
in
rain mn
in
humidity
%
barometer
mb
20260504021511 60 198 1.0 4.0 0.00 0.00 0.00 57 1004.9
20260504021002 61 212 3.0 4.0 0.00 0.00 0.00 56 1004.8
20260504020503 60 229 1.0 4.0 0.00 0.00 0.00 57 1004.8
20260504020015 60 239 1.0 4.0 0.00 0.00 0.00 57 1004.8
20260504015507 60 216 2.0 4.0 0.00 0.00 0.00 57 1004.7
20260504015007 60 205 2.0 4.0 0.00 0.00 0.00 57 1004.7
20260504014514 59 231 1.0 4.0 0.00 0.00 0.00 58 1004.7
20260504014003 59 209 2.0 4.0 0.00 0.00 0.00 58 1004.6
20260504013503 59 169 2.0 3.0 0.00 0.00 0.00 57 1004.6
20260504013022 60 207 1.0 3.0 0.00 0.00 0.00 56 1004.6
20260504012504 60 212 1.0 2.0 0.00 0.00 0.00 55 1004.5
20260504012004 61 216 1.0 3.0 0.00 0.00 0.00 54 1004.5
20260504011513 61 223 1.0 3.0 0.00 0.00 0.00 53 1004.5
20260504011007 62 250 0.0 2.0 0.00 0.00 0.00 53 1004.4
20260504010503 62 238 0.0 2.0 0.00 0.00 0.00 52 1004.4
20260504010014 62 211 0.0 3.0 0.00 0.00 0.00 51 1004.4
20260504005506 63 229 0.0 3.0 0.00 0.00 0.00 50 1004.4
20260504005005 63 260 0.0 2.0 0.00 0.00 0.00 50 1004.4
20260504004516 63 255 0.0 3.0 0.00 0.00 0.00 49 1004.4
20260504004004 64 271 1.0 3.0 0.00 0.00 0.00 49 1004.5
20260504003506 64 261 0.0 3.0 0.00 0.00 0.00 48 1004.5
20260504003015 65 244 1.0 4.0 0.00 0.00 0.00 47 1004.5
20260504002503 65 260 1.0 4.0 0.00 0.00 0.00 47 1004.4
20260504002006 65 274 1.0 4.0 0.00 0.00 0.00 46 1004.4
20260504001515 66 276 1.0 8.0 0.00 0.00 0.00 45 1004.5
20260504001004 66 252 2.0 10.0 0.00 0.00 0.00 45 1004.5
20260504000505 66 282 2.0 10.0 0.00 0.00 0.00 44 1004.4
20260504000018 67 275 4.0 10.0 0.00 0.00 0.00 43 1004.4
20260503235503 66 295 3.0 10.0 0.00 0.00 0.00 44 1004.4
20260503235007 67 288 2.0 8.0 0.00 0.00 0.00 43 1004.4
20260503234508 67 292 3.0 8.0 0.00 0.00 0.00 43 1004.5
20260503234006 67 295 2.0 11.0 0.00 0.00 0.00 43 1004.5
20260503233505 67 269 4.0 11.0 0.00 0.00 0.00 43 1004.5
20260503233009 67 259 4.0 9.0 0.00 0.00 0.00 43 1004.5
20260503232506 67 280 3.0 9.0 0.00 0.00 0.00 43 1004.5
20260503232011 67 254 2.0 15.0 0.00 0.00 0.00 44 1004.6
20260503231518 67 265 6.0 15.0 0.00 0.00 0.00 42 1004.6
20260503231007 67 290 6.0 14.0 0.00 0.00 0.00 42 1004.7
20260503230508 67 264 5.0 15.0 0.00 0.00 0.00 41 1004.6
20260503230018 67 259 7.0 15.0 0.00 0.00 0.00 41 1004.7
20260503225504 67 281 7.0 13.0 0.00 0.00 0.00 41 1004.8
20260503225004 67 279 5.0 12.0 0.00 0.00 0.00 42 1004.7
20260503224507 68 288 4.0 12.0 0.00 0.00 0.00 42 1004.8
20260503224007 68 293 3.0 13.0 0.00 0.00 0.00 41 1004.8
20260503223507 68 231 5.0 13.0 0.00 0.00 0.00 41 1004.8
20260503223012 68 266 5.0 13.0 0.00 0.00 0.00 42 1004.8
20260503222502 67 267 4.0 11.0 0.00 0.00 0.00 44 1004.8
20260503222006 67 285 1.0 12.0 0.00 0.00 0.00 45 1004.8
20260503221528 67 262 5.0 13.0 0.00 0.00 0.00 42 1004.8
20260503221008 67 193 4.0 13.0 0.00 0.00 0.00 42 1004.8
20260503220508 67 193 4.0 11.0 0.00 0.00 0.00 44 1004.8
20260503220020 67 288 2.0 19.0 0.00 0.00 0.00 44 1004.8
20260503215504 67 231 7.0 16.0 0.00 0.00 0.00 44 1005.0
20260503215008 67 255 3.0 14.0 0.00 0.00 0.00 44 1005.0
20260503214524 67 219 5.0 14.0 0.00 0.00 0.00 44 1004.9
20260503214008 67 268 4.0 19.0 0.00 0.00 0.00 44 1005.0
20260503213502 66 305 6.0 19.0 0.00 0.00 0.00 44 1005.0
20260503213018 66 197 5.0 16.0 0.00 0.00 0.00 43 1005.3
20260503212503 66 262 6.0 16.0 0.00 0.00 0.00 42 1005.4
20260503212006 67 268 7.0 19.0 0.00 0.00 0.00 43 1005.4
20260503211518 66 222 4.0 19.0 0.00 0.00 0.00 43 1005.4
20260503211009 66 263 5.0 21.0 0.00 0.00 0.00 44 1005.5
20260503210506 65 194 6.0 21.0 0.00 0.00 0.00 45 1005.5
20260503210022 66 256 6.0 21.0 0.00 0.00 0.00 43 1005.7
20260503205507 66 259 4.0 21.0 0.00 0.00 0.00 44 1005.6
20260503205010 66 166 6.0 16.0 0.00 0.00 0.00 44 1005.7
20260503204525 66 233 6.0 25.0 0.00 0.00 0.00 45 1005.8
20260503204010 66 23 7.0 25.0 0.00 0.00 0.00 43 1006.1
20260503203507 66 274 6.0 21.0 0.00 0.00 0.00 44 1006.0
20260503203020 65 236 6.0 25.0 0.00 0.00 0.00 46 1006.2
20260503202505 65 214 4.0 25.0 0.00 0.00 0.00 49 1006.5
20260503202006 64 268 6.0 22.0 0.00 0.00 0.00 49 1006.5
20260503201525 64 280 9.0 24.0 0.00 0.00 0.00 48 1006.6
20260503201008 63 230 5.0 24.0 0.00 0.00 0.00 53 1006.7
20260503200506 63 250 7.0 21.0 0.00 0.00 0.00 50 1007.0
20260503200027 63 242 5.0 18.0 0.00 0.00 0.00 51 1007.1
20260503195507 63 243 5.0 24.0 0.00 0.00 0.00 49 1007.2
20260503195007 63 229 6.0 28.0 0.00 0.00 0.00 49 1007.5
20260503194527 62 218 7.0 28.0 0.00 0.00 0.00 50 1007.6
20260503194007 63 187 8.0 18.0 0.00 0.00 0.00 47 1007.6
20260503193506 63 222 3.0 17.0 0.00 0.00 0.00 48 1007.6
20260503193024 63 278 6.0 15.0 0.00 0.00 0.00 49 1007.7
20260503192509 62 167 5.0 16.0 0.00 0.00 0.00 48 1007.7
20260503192008 62 303 6.0 18.0 0.00 0.00 0.00 48 1007.8
20260503191515 62 234 5.0 27.0 0.00 0.00 0.00 50 1007.8
20260503191006 62 229 9.0 27.0 0.00 0.00 0.00 46 1007.7
20260503190506 62 205 7.0 24.0 0.00 0.00 0.00 45 1007.8
20260503190022 63 199 7.0 18.0 0.00 0.00 0.00 45 1007.6
20260503185507 62 206 6.0 22.0 0.00 0.00 0.00 45 1007.7
20260503185009 62 234 8.0 28.0 0.00 0.00 0.00 45 1007.6
20260503184526 62 197 10.0 28.0 0.00 0.00 0.00 48 1007.8
20260503184006 62 203 6.0 25.0 0.00 0.00 0.00 48 1007.8
20260503183515 61 191 3.0 25.0 0.00 0.00 0.00 49 1008.0
20260503183034 61 253 10.0 25.0 0.00 0.00 0.00 49 1008.1
20260503182507 61 214 8.0 23.0 0.00 0.00 0.00 47 1008.2
20260503182009 61 230 7.0 23.0 0.00 0.00 0.00 48 1008.1
20260503181535 60 202 7.0 23.0 0.00 0.00 0.00 49 1008.1
20260503181008 61 195 9.0 25.0 0.00 0.00 0.00 50 1008.3
20260503180504 60 175 7.0 26.0 0.00 0.00 0.00 51 1008.3
20260503180016 60 219 9.0 26.0 0.00 0.00 0.00 48 1008.5
20260503175503 60 210 6.0 24.0 0.00 0.00 0.00 53 1008.6
20260503175009 59 222 10.0 21.0 0.00 0.00 0.00 53 1008.7
20260503174521 59 178 7.0 24.0 0.00 0.00 0.00 54 1008.8
20260503174007 58 167 13.0 24.0 0.00 0.00 0.00 54 1009.1
20260503173509 58 220 13.0 23.0 0.00 0.00 0.00 56 1009.2
20260503173040 58 187 10.0 23.0 0.00 0.00 0.00 59 1009.3
20260503172506 58 294 5.0 17.0 0.00 0.00 0.00 58 1009.3
20260503172006 56 192 7.0 22.0 0.00 0.00 0.00 59 1009.6
20260503171524 56 231 11.0 22.0 0.00 0.00 0.00 57 1009.7
20260503171007 56 212 4.0 20.0 0.00 0.00 0.00 61 1009.9
20260503170508 55 153 10.0 20.0 0.00 0.00 0.00 60 1010.1
20260503151003 55 211 7.0 16.0 0.00 0.00 0.00 55 1011.5
20260503150507 55 265 7.0 16.0 0.00 0.01 0.00 53 1011.5
20260503131007 52 230 1.0 11.0 0.00 0.08 0.00 56 1012.2
20260503130500 51 207 4.0 22.0 0.00 0.08 0.00 55 1012.3
20260503110508 0 0.0 0.0 0.00 0.12 0.00 1011.9
20260503090513 0 0.0 0.0 0.00 0.12 0.00 1012.7
20260503081515 49 236 3.0 10.0 0.00 0.12 0.00 49 1013.0
20260503081007 49 206 3.0 9.0 0.00 0.12 0.00 48 1013.0
20260503080506 49 250 3.0 12.0 0.00 0.12 0.00 50 1013.1
20260503072509 48 248 3.0 7.0 0.00 0.12 0.00 49 1013.1
20260503072009 48 251 1.0 6.0 0.00 0.12 0.00 49 1013.2
20260503071529 48 246 2.0 10.0 0.00 0.12 0.00 49 1013.3
20260503071008 48 250 3.0 10.0 0.00 0.12 0.00 49 1013.4
20260503070502 48 253 3.0 10.0 0.00 0.12 0.00 49 1013.5
20260503055006 48 281 1.0 8.0 0.00 0.12 0.00 51 1013.9
20260503054521 48 256 2.0 9.0 0.00 0.12 0.00 50 1013.9
20260503054011 48 232 2.0 9.0 0.00 0.12 0.00 51 1014.0
20260503053505 48 266 1.0 8.0 0.00 0.12 0.00 50 1014.0
20260503053031 48 231 3.0 9.0 0.00 0.12 0.00 50 1014.1
20260503052508 48 229 2.0 11.0 0.00 0.12 0.00 51 1014.1
20260503052008 48 301 3.0 11.0 0.00 0.13 0.00 52 1014.2
20260503051526 48 236 1.0 11.0 0.00 0.13 0.00 52 1014.2
20260503051003 48 226 3.0 11.0 0.00 0.13 0.00 52 1014.2
20260503050505 48 263 3.0 10.0 0.00 0.13 0.00 52 1014.3
20260503050007 48 232 4.0 11.0 0.00 0.13 0.00 51 1014.3
20260503045505 48 250 3.0 11.0 0.00 0.13 0.13 52 1014.3
20260503045005 48 268 1.0 8.0 0.00 0.13 0.13 53 1014.4
20260503044522 48 192 2.0 8.0 0.00 0.13 0.13 52 1014.4
20260503044005 48 226 1.0 8.0 0.00 0.13 0.13 52 1014.4
20260503043505 48 245 1.0 9.0 0.00 0.13 0.13 52 1014.4
20260503043016 48 233 1.0 9.0 0.00 0.13 0.13 51 1014.5
20260503042505 48 236 2.0 8.0 0.00 0.13 0.13 52 1014.5
20260503042008 48 262 2.0 8.0 0.00 0.13 0.13 51 1014.5
20260503041522 48 239 2.0 6.0 0.00 0.13 0.13 51 1014.6
20260503041007 48 242 1.0 9.0 0.00 0.13 0.13 52 1014.6
20260503040514 48 234 1.0 9.0 0.00 0.13 0.13 51 1014.6
20260503040014 48 259 2.0 9.0 0.00 0.13 0.13 51 1014.6
20260503035503 49 269 2.0 8.0 0.00 0.13 0.13 51 1014.7
20260503035003 48 288 3.0 8.0 0.00 0.13 0.13 52 1014.7
20260503034512 49 292 2.0 8.0 0.00 0.13 0.13 51 1014.7
20260503034007 49 304 2.0 8.0 0.00 0.13 0.13 51 1014.8
20260503033502 48 248 2.0 7.0 0.00 0.13 0.13 52 1014.8
20260503033018 48 250 0.0 8.0 0.00 0.13 0.13 51 1014.7
20260503032505 49 304 1.0 8.0 0.00 0.13 0.13 51 1014.7
20260503032010 49 231 1.0 8.0 0.00 0.13 0.13 51 1014.7
20260503031519 49 267 2.0 6.0 0.00 0.13 0.13 51 1014.7
20260503031006 49 238 1.0 6.0 0.00 0.13 0.13 51 1014.8
20260503030508 49 236 0.0 7.0 0.00 0.13 0.13 52 1014.9
20260503030029 49 219 3.0 7.0 0.00 0.13 0.13 51 1014.9
20260503025512 49 258 1.0 7.0 0.00 0.13 0.13 50 1014.9
20260503025010 49 284 3.0 7.0 0.00 0.13 0.13 50 1014.9
20260503024509 49 248 2.0 6.0 0.00 0.13 0.13 51 1014.9
20260503024006 49 238 1.0 5.0 0.00 0.13 0.13 52 1014.9
20260503023503 48 262 2.0 7.0 0.00 0.13 0.13 52 1015.0
20260503023016 48 237 2.0 7.0 0.00 0.13 0.13 52 1014.9
20260503022505 48 245 1.0 5.0 0.00 0.13 0.13 54 1014.9
20260503022005 47 229 1.0 5.0 0.00 0.13 0.13 55 1014.9